MILESOVKA Weather Reports


Display with metric or nautical units.
time (UTC)temp
F
wind
direction
speed
MPH
gust
MPH
rain 1hr
in
rain 24hr
in
rain mn
in
humidity
%
barometer
mb
20260507071745 48 270 7.0 0.0 0.00 0.00 0.00 99
20260507061745 48 310 5.0 0.0 0.00 0.00 0.00 99
20260507051744 48 240 12.0 0.0 0.00 0.00 0.00 99
20260507041947 48 0 0.0 0.0 0.00 0.00 0.00 99
20260507031744 48 250 5.0 0.0 0.00 0.00 0.00 99
20260507021743 48 230 7.0 0.0 0.00 0.00 0.00 99
20260507011845 48 350 9.0 0.0 0.00 0.00 0.00 99
20260507001745 50 250 14.0 0.0 0.00 0.00 0.00 99
20260506231745 50 250 9.0 0.0 0.00 0.00 0.00 99
20260506221945 50 240 16.0 0.0 0.00 0.00 0.00 99
20260506211744 52 100 7.0 0.0 0.00 0.00 0.00 99
20260506201802 54 60 12.0 0.0 0.00 0.00 0.00 87
20260506191833 55 70 7.0 0.0 0.00 0.00 0.00 87
20260506181822 57 320 12.0 0.0 0.00 0.00 0.00 71
20260506171744 61 240 5.0 0.0 0.00 0.00 0.00 63
20260506161945 61 250 5.0 0.0 0.00 0.00 0.00 63
20260506151801 64 210 12.0 0.0 0.00 0.00 0.00 55
20260506141801 64 220 12.0 0.0 0.00 0.00 0.00 55
20260506131802 66 220 12.0 0.0 0.00 0.00 0.00 59
20260506121801 64 240 12.0 0.0 0.00 0.00 0.00 67
20260506111745 59 210 18.0 0.0 0.00 0.00 0.00 77
20260506101946 59 230 14.0 0.0 0.00 0.00 0.00 82
20260506091746 55 240 16.0 26.0 0.00 0.00 0.00 87
20260506081744 52 250 16.0 26.0 0.00 0.00 0.00 99